Lapse_Rate
6.4 6.4 5.6 6.1 6.3 6.4 6.2 6.2 6.0 5.6 5.3 5.4 5.4 5.1 5.1 4.8 4.9 4.9 4.7 4.8 4.7 4.7 4.7 4.7 4.5 4.4 4.5 4.7 4.7 4.6 4.6 4.6 4.4 4.6 5.0 4.6 4.5 4.6 4.5 4.4 4.0 4.0 4.2
6.1 6.1 5.5 5.9 6.1 6.2 5.9 5.8 5.7 5.9 5.8 5.1 5.4 5.3 5.3 5.2 5.0 5.0 4.9 4.7 4.6 4.5 4.5 4.5 4.6 4.7 4.6 4.7 4.9 4.9 5.0 4.9 4.7 4.8 4.7 4.7 4.6 4.4 3.9 4.1 4.4 4.4 4.5
6.2 6.3 6.1 5.8 6.0 5.9 5.6 5.8 6.1 5.6 5.4 5.2 5.4 5.5 5.5 5.4 5.2 5.0 5.0 5.0 4.9 4.8 4.7 4.8 4.8 4.8 4.8 4.6 4.8 5.3 5.6 5.0 4.7 4.5 4.3 4.1 4.0 3.9 4.1 4.5 4.5 4.4 4.4
6.0 5.7 5.8 5.6 5.6 5.7 5.7 5.5 5.8 5.4 5.3 5.3 5.2 5.2 5.3 5.3 5.2 5.2 5.3 5.2 5.1 4.9 4.7 4.6 4.7 4.8 4.8 4.9 5.3 5.3 5.1 5.2 4.9 4.5 4.1 4.1 4.0 4.3 4.4 4.5 4.5 4.6 4.7
5.6 5.5 5.6 5.7 5.6 5.7 5.5 5.4 5.3 5.1 5.1 5.3 5.3 5.2 5.1 5.1 5.1 5.1 5.0 4.9 4.9 4.8 4.9 4.6 4.7 4.7 4.8 4.8 4.8 4.9 4.6 4.4 4.5 4.6 4.5 4.5 4.5 4.6 4.7 4.6 4.7 4.8 4.8
5.8 6.0 5.9 5.8 5.7 5.7 5.8 5.8 5.7 5.9 5.8 5.7 5.9 5.6 5.5 5.4 5.5 5.4 5.4 4.8 4.8 4.6 4.9 5.0 4.8 4.8 4.9 4.8 4.8 4.7 4.8 4.8 4.8 4.6 4.7 4.6 4.5 4.7 4.7 4.8 4.8 4.9 5.0
5.8 5.8 5.7 5.7 5.8 5.8 5.9 6.0 6.0 5.9 5.9 6.0 5.9 5.9 5.8 5.6 5.5 5.3 5.0 5.0 5.0 4.9 5.0 5.2 5.1 5.1 5.1 5.2 5.1 5.0 5.0 4.8 4.7 4.7 4.6 4.7 4.7 4.7 4.8 4.7 4.8 5.0 5.1
6.0 5.9 5.9 5.9 5.9 5.9 5.8 5.7 5.7 5.8 6.0 6.0 5.9 5.7 5.5 5.5 5.3 5.3 5.2 5.2 5.1 5.1 5.1 5.0 5.1 5.1 5.1 5.1 5.3 5.0 4.8 4.8 4.8 4.7 4.7 4.7 4.6 4.7 4.7 4.8 4.9 5.0 5.0
6.0 6.1 6.0 6.0 6.0 5.9 5.9 6.0 6.1 6.1 5.9 5.8 5.6 5.5 5.5 5.4 5.4 5.3 5.3 5.1 5.0 5.0 5.0 5.2 5.1 5.2 5.2 5.2 5.0 5.0 5.0 5.0 4.9 4.8 4.8 4.8 4.8 4.9 4.9 4.9 5.0 5.0 4.7
6.0 5.9 5.9 6.0 6.0 6.0 6.0 6.1 6.0 6.0 5.8 5.7 5.6 5.6 5.6 5.6 5.6 5.5 5.3 5.2 5.2 5.2 5.2 5.2 5.2 5.2 5.3 5.3 5.2 5.1 5.0 4.8 4.7 4.7 4.8 4.8 4.8 4.9 4.9 4.9 4.8 4.7 4.9
6.0 5.9 5.9 5.9 5.9 6.0 6.0 6.0 5.9 5.9 5.9 5.8 5.8 5.8 5.8 5.8 5.9 5.9 5.9 5.8 5.6 5.5 5.3 5.3 5.4 5.4 5.3 5.2 5.1 5.0 4.7 4.6 4.6 4.7 4.8 4.8 4.9 4.9 4.8 4.8 4.7 4.7 4.9
6.0 6.0 5.9 5.9 5.9 5.9 5.9 5.9 5.8 5.9 5.9 5.9 5.9 5.8 5.7 5.7 5.7 5.8 5.9 5.8 5.7 5.6 5.4 5.4 5.4 5.3 5.3 5.1 4.9 4.8 4.6 4.5 4.6 4.6 4.6 4.6 4.7 4.6 4.7 4.7 4.7 4.7 4.8
6.4 6.3 6.1 6.0 6.0 5.9 5.9 5.9 6.0 6.1 6.1 6.1 6.0 5.9 5.8 5.8 5.8 5.8 5.7 5.7 5.6 5.7 5.7 5.6 5.6 5.5 5.3 5.0 4.9 4.7 4.7 4.5 4.5 4.5 4.5 4.5 4.6 4.6 4.6 4.6 4.7 4.7 4.7
6.3 6.3 6.4 6.3 6.4 6.3 6.2 6.2 6.3 6.2 6.1 6.1 6.0 5.9 5.8 5.9 5.8 5.7 5.7 5.7 5.7 5.7 5.7 5.5 5.4 5.3 5.1 4.9 4.8 4.6 4.5 4.5 4.5 4.6 4.6 4.5 4.5 4.5 4.5 4.6 4.6 4.5 4.7
6.5 6.5 6.5 6.4 6.5 6.6 6.5 6.5 6.4 6.2 6.1 6.0 5.9 5.8 5.8 5.8 5.7 5.6 5.6 5.6 5.6 5.6 5.6 5.4 5.3 5.2 5.1 4.8 4.7 4.6 4.5 4.5 4.5 4.5 4.5 4.5 4.5 4.5 4.5 4.4 4.5 4.8 5.2
6.5 6.5 6.6 6.5 6.5 6.4 6.3 6.2 6.1 6.1 6.1 6.1 6.0 5.8 5.7 5.6 5.5 5.4 5.4 5.4 5.5 5.4 5.3 5.2 5.2 5.1 5.0 5.0 4.8 4.7 4.5 4.4 4.4 4.3 4.3 4.3 4.4 4.4 4.3 4.3 4.6 5.1 5.6
6.2 6.2 6.3 6.4 6.4 6.4 6.4 6.4 6.3 6.1 6.0 6.0 5.9 5.9 5.7 5.6 5.5 5.4 5.2 5.4 5.5 5.3 5.1 5.1 5.1 5.1 5.0 5.1 5.1 4.8 4.7 4.6 4.4 4.3 4.3 4.3 4.3 4.2 4.2 4.4 5.0 5.5 5.9
6.3 6.3 6.3 6.1 6.1 6.2 6.4 6.3 6.3 6.2 6.1 6.0 5.8 5.7 5.7 5.6 5.6 5.5 5.3 5.3 5.4 5.3 5.1 5.1 5.0 5.0 5.1 5.3 5.2 4.9 4.6 4.5 4.3 4.3 4.4 4.4 4.2 4.2 4.5 5.0 5.5 5.8 5.9
6.5 6.5 6.3 6.4 6.3 6.2 6.2 6.3 6.4 6.3 6.0 5.9 5.8 5.7 5.7 5.5 5.5 5.6 5.3 5.4 5.5 5.4 5.2 5.1 5.0 4.9 5.2 5.1 4.8 4.7 4.6 4.4 4.3 4.3 4.3 4.2 4.3 4.6 5.2 5.6 5.7 5.8 5.8
6.4 6.3 6.3 6.3 6.3 6.3 6.3 6.3 6.2 6.0 5.8 5.8 5.4 5.4 5.5 5.2 5.4 5.5 5.2 5.3 5.4 5.4 5.3 5.1 5.0 5.1 5.1 4.8 4.7 4.6 4.5 4.4 4.2 4.2 4.2 4.3 4.6 5.2 5.5 5.6 5.6 5.6 5.5
6.2 6.2 6.2 6.0 6.1 6.1 6.2 6.3 6.1 5.9 5.8 5.6 5.6 5.6 5.6 5.5 5.4 5.5 4.8 5.1 5.6 5.4 5.2 5.1 5.2 5.2 4.9 4.7 4.7 4.5 4.4 4.2 4.2 4.1 4.1 4.4 5.0 5.4 5.5 5.6 5.5 5.3 5.3
6.1 6.0 6.0 5.9 5.7 5.9 5.9 5.8 5.6 5.7 5.5 5.4 5.5 5.8 5.9 5.9 5.5 5.5 4.9 5.5 5.6 5.4 5.2 5.3 5.2 5.0 4.9 4.7 4.6 4.5 4.3 4.2 4.0 4.0 4.2 4.7 5.2 5.5 5.5 5.5 5.3 5.2 5.2
5.9 5.9 6.0 5.9 5.6 5.6 5.6 5.8 5.7 5.8 5.7 5.7 5.9 5.8 6.0 5.8 5.6 5.4 5.3 5.6 5.4 5.3 5.5 5.3 5.0 4.9 4.8 4.6 4.5 4.3 4.1 3.9 3.9 4.0 4.3 4.9 5.3 5.5 5.5 5.3 5.1 5.1 5.1
5.9 5.8 5.7 5.7 5.6 5.6 5.7 5.6 5.7 6.1 6.2 6.4 6.2 6.0 5.8 5.7 5.6 5.2 5.5 5.3 5.4 5.5 5.3 5.1 5.0 4.8 4.6 4.5 4.3 4.1 3.9 3.8 3.8 3.9 4.3 4.9 5.3 5.3 5.3 5.2 5.1 5.0 5.1
5.7 5.5 5.5 5.5 5.5 5.6 5.6 5.7 6.4 6.5 6.4 6.3 6.0 5.7 5.8 5.6 5.6 5.6 5.3 5.4 5.4 5.2 5.1 5.1 4.9 4.7 4.5 4.3 4.2 3.9 3.7 3.7 3.7 3.9 4.3 4.9 5.2 5.2 5.2 5.2 5.2 5.2 5.2
5.3 5.3 5.3 5.3 5.4 5.4 5.7 6.5 7.0 6.4 6.3 6.0 5.7 5.9 5.8 5.7 5.6 5.5 5.4 5.3 5.3 5.3 5.2 5.1 4.8 4.6 4.3 4.2 4.0 3.8 3.6 3.6 3.7 3.8 4.1 4.5 4.9 5.0 5.1 5.1 5.1 5.2 5.3
Wind_Speed
9 10 9 8 9 10 8 9 10 9 8 9 9 10 9 8 7 7 7 8 8 5 5 4 4 3 2 2 2 1 2 0 2 1 1 1 3 1 2 4 5 7 8
7 11 11 10 10 10 8 8 10 10 11 11 9 9 9 9 8 7 6 5 6 5 4 4 4 4 4 4 3 5 3 3 2 4 1 2 1 1 2 5 6 7 9
8 10 11 11 10 10 9 7 7 9 11 9 8 7 8 8 8 7 7 8 6 4 5 5 5 6 5 4 4 5 3 3 3 3 2 1 0 2 4 5 5 8 9
10 10 11 10 10 9 10 9 9 10 10 11 8 8 7 7 7 7 7 7 6 6 5 5 6 5 6 6 5 5 2 3 3 3 2 1 1 1 3 4 5 5 6
10 10 9 9 9 8 9 9 10 11 11 11 10 10 8 6 5 7 8 7 7 7 6 6 7 9 11 8 5 5 4 2 2 2 2 2 2 2 3 4 5 6 6
10 10 9 9 10 10 11 11 12 12 12 12 11 10 10 7 14 13 9 8 8 9 8 8 8 9 10 9 9 7 4 2 1 2 2 3 3 2 3 4 5 5 5
12 11 11 10 10 11 12 12 12 12 12 12 10 9 10 10 13 14 12 8 8 7 7 6 6 5 5 8 9 7 6 4 4 4 3 2 3 3 3 5 6 6 6
12 12 11 11 11 11 11 11 11 11 10 9 8 8 9 8 12 13 11 8 7 7 6 5 4 3 2 2 3 3 2 2 2 0 2 2 3 4 5 7 7 6 5
13 13 13 13 12 11 11 11 9 9 8 8 7 7 9 9 11 10 8 7 7 6 5 5 3 2 3 2 4 3 3 3 6 7 5 1 2 3 4 5 3 4 4
12 12 11 11 11 11 11 10 9 8 9 7 8 7 9 9 10 9 6 5 5 4 4 4 4 2 1 2 4 2 4 4 4 3 3 4 3 2 1 3 3 3 3
12 12 11 11 11 12 11 9 9 9 9 8 8 7 7 8 9 9 5 5 4 4 3 3 3 3 5 5 2 2 1 4 3 2 2 1 1 2 2 3 3 2 1
13 13 12 12 9 9 11 10 10 10 10 9 8 7 5 6 5 9 7 5 4 3 3 2 3 4 5 4 1 4 8 5 2 3 1 1 1 2 3 5 5 4 5
15 14 12 11 9 9 9 9 8 8 7 7 6 6 6 5 5 6 7 4 5 2 3 4 3 3 2 2 2 4 6 1 1 2 2 2 2 3 5 4 6 7 8
15 14 13 13 12 11 9 8 8 8 7 7 7 6 6 5 5 5 4 5 6 5 5 3 2 1 2 2 3 5 2 1 3 3 3 2 3 3 4 4 5 5 6
15 14 13 11 12 12 10 9 8 8 7 7 6 6 7 6 7 8 6 5 4 3 3 3 3 2 2 3 3 2 2 3 3 1 3 4 4 3 4 5 5 5 7
16 13 12 11 11 10 9 7 1 1 8 4 5 6 5 1 9 11 9 5 6 7 3 3 3 3 3 3 3 3 3 3 3 2 3 4 4 5 5 5 5 5 6
16 15 11 12 11 11 10 9 8 5 9 9 10 10 8 8 10 11 9 5 8 6 4 3 3 3 3 3 3 3 4 3 3 3 4 5 5 6 6 6 5 5 6
17 17 12 11 11 10 10 9 8 9 9 7 8 8 10 10 11 9 9 5 4 5 4 3 4 4 3 4 4 4 4 4 4 5 5 6 4 3 5 6 6 7 7
14 11 12 11 10 11 10 9 9 9 8 8 7 8 10 12 11 10 8 5 5 5 4 4 4 4 3 1 1 2 2 3 4 4 3 3 5 5 7 7 6 10 10
14 17 15 11 10 11 10 10 9 9 9 8 8 8 8 9 7 7 6 5 4 4 3 3 3 3 3 3 3 3 4 5 5 5 5 5 6 6 7 7 7 7 6
11 11 17 10 10 10 9 10 10 9 9 8 8 8 14 9 7 6 5 5 5 4 3 3 3 3 4 4 4 3 4 4 4 5 5 5 5 6 7 6 6 7 9
11 11 11 10 10 10 10 10 9 9 9 9 7 8 16 7 6 6 6 5 4 5 5 3 3 4 4 3 4 4 5 5 4 5 5 5 6 6 5 7 8 8 8
11 12 12 10 10 12 11 10 9 10 9 8 8 7 8 8 6 6 6 5 6 6 5 5 4 4 4 6 7 6 5 5 5 7 6 6 6 7 7 8 8 8 9
11 12 11 10 9 10 11 10 10 11 9 9 8 7 7 6 7 7 6 6 7 6 5 5 5 5 4 4 5 5 6 6 7 9 11 8 8 8 7 8 8 8 8
10 10 10 10 10 10 10 11 9 10 10 9 7 6 7 7 7 7 6 8 7 6 5 5 4 4 5 6 6 7 7 9 10 11 12 12 9 11 9 7 9 8 10
10 11 10 9 10 10 9 10 10 10 9 8 7 7 8 7 7 7 6 8 7 7 6 5 5 6 6 7 8 7 10 11 12 14 15 14 8 7 6 8 12 9 11
Wind_Direction
71 74 77 95 112 113 123 124 120 116 115 111 114 115 109 98 94 101 92 92 85 79 61 76 80 67 66 66 66 148 79 103 119 93 88 141 140 92 40 338 332 327 317
82 92 81 70 73 78 83 102 122 124 122 114 118 110 117 120 116 106 102 98 124 140 151 142 132 129 115 110 96 76 84 42 101 128 128 132 141 22 342 328 326 312 308
84 87 91 93 82 78 87 90 106 111 108 111 109 114 121 122 122 124 136 141 137 152 161 153 129 120 108 95 81 100 73 58 56 123 138 175 95 356 339 312 300 303 312
101 91 83 85 92 96 90 91 106 105 107 100 92 89 85 86 89 101 99 92 91 94 84 96 112 118 120 123 117 108 107 85 80 89 108 180 274 306 302 308 322 328 319
109 101 88 78 80 90 93 100 103 95 96 97 99 95 86 88 93 92 94 100 101 91 91 103 108 124 130 133 137 139 127 125 131 164 208 230 265 294 329 329 306 318 304
108 103 108 115 132 130 120 114 108 111 110 105 98 97 99 91 98 106 113 110 111 111 109 98 107 120 119 113 111 110 107 165 203 271 287 285 287 317 340 317 311 313 323
131 131 135 135 133 129 119 115 116 111 106 101 101 103 100 99 99 98 100 103 106 106 117 117 114 100 122 142 138 125 109 88 23 328 290 317 332 348 305 303 304 313 321
142 143 142 136 127 124 123 120 114 107 107 110 114 110 107 96 102 104 107 105 109 109 109 113 116 143 105 190 188 193 179 160 122 17 5 316 282 285 280 297 307 316 295
152 149 147 144 139 134 127 121 119 121 122 122 125 125 116 112 109 107 111 114 119 120 119 108 127 176 113 212 206 200 188 133 104 88 75 47 296 304 321 293 302 313 322
158 151 147 145 141 140 139 139 140 141 139 143 136 122 109 115 117 116 120 120 119 115 102 112 87 10 254 215 234 223 229 176 190 201 252 207 239 133 264 297 325 321 357
160 155 155 157 158 154 152 152 154 149 149 148 142 135 131 126 125 118 108 116 120 121 125 130 114 32 57 114 77 213 261 137 154 269 265 234 160 121 83 57 40 354 349
163 164 165 164 159 160 159 158 162 162 161 160 158 154 150 150 148 158 136 103 132 134 132 94 82 69 66 60 352 139 136 147 250 259 245 212 311 360 4 352 344 320 307
169 170 168 164 163 166 166 168 169 175 174 171 174 171 166 170 169 183 160 137 155 166 140 123 132 102 32 299 299 215 146 118 288 242 248 266 303 323 316 314 322 318 300
174 173 171 172 171 175 180 180 180 184 185 183 183 182 173 177 179 173 182 180 164 178 151 163 160 110 263 280 241 152 182 185 243 253 239 282 289 288 302 300 306 307 301
179 177 177 182 185 182 184 185 190 194 191 187 190 187 183 190 195 193 198 200 197 159 171 176 194 224 248 220 203 220 217 238 263 269 278 280 294 289 299 299 295 299 296
183 182 185 184 183 183 180 171 199 187 182 185 179 192 185 202 163 181 188 197 167 157 220 225 215 223 245 227 226 230 243 262 264 267 280 290 295 294 296 306 303 295 294
188 185 182 188 182 182 182 180 178 171 184 184 185 185 187 170 177 181 191 204 186 194 245 240 250 245 256 242 239 240 253 247 250 260 269 278 272 282 286 297 302 299 298
192 186 185 187 185 186 185 182 177 177 177 182 190 183 179 178 179 181 183 192 202 226 246 256 263 258 248 250 251 251 257 258 253 258 265 273 302 274 288 293 298 302 291
192 187 189 184 184 184 182 181 180 178 177 172 166 180 177 178 178 184 191 218 215 224 230 249 256 260 259 326 295 297 313 289 284 304 313 268 273 289 294 295 290 282 295
196 191 186 180 176 179 179 179 181 180 177 175 178 174 170 172 184 195 201 201 211 222 231 239 253 251 245 254 253 255 264 273 284 290 288 284 292 294 285 289 292 293 294
191 187 184 180 179 178 174 181 178 179 179 178 182 173 179 184 197 198 203 206 210 218 222 237 250 256 263 264 252 257 269 282 276 274 279 285 286 287 294 311 294 286 297
184 184 184 186 179 179 177 175 173 174 175 171 171 168 181 196 197 201 202 199 197 205 213 216 236 258 273 275 277 289 287 285 284 288 293 300 298 305 296 283 295 302 302
182 183 185 188 185 173 171 168 170 171 169 162 163 159 181 203 199 200 193 187 186 196 201 214 218 251 259 270 276 273 274 286 302 302 297 300 297 295 299 298 300 298 299
183 182 181 181 175 173 172 170 170 162 155 154 160 165 191 195 193 192 185 178 183 189 194 213 227 237 261 276 268 271 275 287 306 301 296 293 292 298 300 297 293 289 292
174 170 175 171 169 171 167 168 159 155 154 156 155 174 192 191 188 184 176 176 183 185 196 212 230 246 261 269 269 273 283 288 285 285 287 286 284 284 283 290 299 298 293
163 163 167 170 172 171 164 156 155 152 150 148 170 184 184 183 182 176 176 181 184 189 199 212 230 240 263 278 275 288 295 289 287 290 294 291 284 287 292 290 296 300 301